This is the latest recevied weather packets stored in our database for station/object WE8L. If no packets are shown the sender has not sent any weather packets the latest 10 day(s).
| Time | Temp. | Humidity | Pressure | Rain* | Wind** | Luminosity | Snow |
|---|---|---|---|---|---|---|---|
| 1777819034 | 11.11° C | 51% | 1021.9 hPa | 0 mm | - | 517 W/m² | - |
| 1777818732 | 11.11° C | 50% | 1021.9 hPa | 0 mm | - | 335 W/m² | - |
| 1777818428 | 11.11° C | 50% | 1021.9 hPa | 0 mm | - | 114 W/m² | - |
| 1777818124 | 11.11° C | 51% | 1021.8 hPa | 0 mm | - | 206 W/m² | - |
| 1777817821 | 11.11° C | 50% | 1021.9 hPa | 0 mm | - | 93 W/m² | - |
| 1777817519 | 10.56° C | 50% | 1021.9 hPa | 0 mm | - | 316 W/m² | - |
| 1777817215 | 10.56° C | 50% | 1021.9 hPa | 0 mm | - | 219 W/m² | - |
| 1777816913 | 10.56° C | 51% | 1021.9 hPa | 0 mm | - | 105 W/m² | - |
| 1777816609 | 10.56° C | 51% | 1021.9 hPa | 0 mm | - | 379 W/m² | - |
| 1777816306 | 10.56° C | 52% | 1022 hPa | 0 mm | - | 150 W/m² | - |
| 1777816004 | 10° C | 53% | 1022 hPa | 0 mm | - | 263 W/m² | - |
| 1777815701 | 10° C | 54% | 1022.2 hPa | 0 mm | - | 310 W/m² | - |
| 1777815398 | 10° C | 55% | 1022 hPa | 0 mm | - | 213 W/m² | - |
| 1777815095 | 9.44° C | 57% | 1022 hPa | 0 mm | - | 318 W/m² | - |
| 1777814791 | 9.44° C | 55% | 1021.9 hPa | 0 mm | - | 309 W/m² | - |
| 1777814488 | 9.44° C | 56% | 1022 hPa | 0 mm | - | 295 W/m² | - |
| 1777814186 | 9.44° C | 57% | 1022 hPa | 0 mm | - | 34 W/m² | - |
| 1777813883 | 8.89° C | 57% | 1022 hPa | 0 mm | - | 31 W/m² | - |
| 1777813580 | 8.89° C | 57% | 1022.1 hPa | 0 mm | - | 31 W/m² | - |
| 1777813278 | 8.33° C | 58% | 1022.1 hPa | 0 mm | - | 30 W/m² | - |
| 1777812974 | 8.33° C | 59% | 1022.1 hPa | 0 mm | - | 30 W/m² | - |
| 1777812672 | 8.33° C | 59% | 1022.1 hPa | 0 mm | - | 29 W/m² | - |
| 1777812369 | 8.33° C | 59% | 1022.1 hPa | 0 mm | - | 29 W/m² | - |
| 1777812067 | 8.33° C | 59% | 1022.1 hPa | 0 mm | - | 28 W/m² | - |
| 1777811765 | 7.78° C | 60% | 1022.3 hPa | 0 mm | - | 27 W/m² | - |
* Rain latest hour (hover to see other rain measurements)
** Current wind speed in m/s (hover to see current wind gust speed)